DW6963 Weather Reports


Display with metric or nautical units.
time (UTC)temp
F
wind
direction
speed
MPH
gust
MPH
rain 1hr
in
rain 24hr
in
rain mn
in
humidity
%
barometer
mb
20260904034454 75 0 0.0 0.0 0.00 0.00 0.00 87 1016.0
20260904033453 75 0 0.0 0.0 0.00 0.00 0.00 87 1016.0
20260904032953 75 0 0.0 0.0 0.00 0.00 0.00 87 1016.0
20260904032453 75 0 0.0 0.0 0.00 0.00 0.00 88 1016.0
20260904031453 75 0 0.0 0.0 0.00 0.00 0.00 87 1015.9
20260904030453 76 0 0.0 0.0 0.00 0.00 0.00 88 1016.0
20260904025953 76 0 0.0 0.0 0.00 0.00 0.00 88 1016.0
20260904025454 76 0 0.0 0.0 0.00 0.00 0.00 87 1016.0
20260904023953 76 0 0.0 0.0 0.00 0.00 0.00 87 1015.9
20260904023453 76 0 0.0 0.0 0.00 0.00 0.00 87 1016.0
20260904022953 77 0 0.0 0.0 0.00 0.00 0.00 87 1016.1
20260904022454 77 0 0.0 0.0 0.00 0.00 0.00 87 1016.0
20260904021953 77 0 0.0 0.0 0.00 0.00 0.00 87 1016.0
20260904021454 77 0 0.0 0.0 0.00 0.00 0.00 87 1015.9
20260904020953 77 0 0.0 0.0 0.00 0.00 0.00 87 1015.9
20260904015953 78 0 0.0 0.0 0.00 0.00 0.00 86 1016.0
20260904014954 78 0 0.0 0.0 0.00 0.00 0.00 85 1016.1
20260904014453 78 0 0.0 0.0 0.00 0.00 0.00 84 1016.2
20260904013953 78 0 0.0 0.0 0.00 0.00 0.00 84 1016.1
20260904013454 78 0 0.0 0.0 0.00 0.00 0.00 84 1016.1
20260904012953 78 0 0.0 0.0 0.00 0.00 0.00 83 1016.1
20260904011953 79 0 0.0 0.0 0.00 0.00 0.00 82 1016.1
20260904010954 79 0 0.0 0.0 0.00 0.00 0.00 81 1016.1
20260904010453 79 0 0.0 0.0 0.00 0.00 0.00 80 1016.0
20260904005953 80 0 0.0 0.0 0.00 0.00 0.00 79 1016.0
20260904004954 80 0 0.0 0.0 0.00 0.00 0.00 79 1016.1
20260904004453 80 0 0.0 0.0 0.00 0.00 0.00 78 1016.0
20260904003953 81 0 0.0 0.0 0.00 0.00 0.00 77 1015.9
20260904003454 81 0 0.0 0.0 0.00 0.00 0.00 77 1015.9
20260904002953 82 0 0.0 0.0 0.00 0.00 0.00 76 1015.8
20260904002453 82 0 0.0 0.0 0.00 0.00 0.00 75 1015.8
20260904001954 83 0 0.0 0.0 0.00 0.00 0.00 74 1015.7
20260904001453 84 0 0.0 0.0 0.00 0.00 0.00 73 1015.8
20260904000954 84 0 0.0 0.0 0.00 0.00 0.00 72 1015.8
20260904000455 85 0 0.0 0.0 0.00 0.00 0.00 70 1015.8
20260903235953 85 0 0.0 0.0 0.00 0.00 0.00 69 1015.6
20260903235453 86 0 0.0 0.0 0.00 0.00 0.00 68 1015.7
20260903234954 87 0 0.0 0.0 0.00 0.00 0.00 67 1015.6
20260903234454 88 0 0.0 0.0 0.00 0.00 0.00 66 1015.6
20260903233453 90 0 0.0 0.0 0.00 0.00 0.00 62 1015.5
20260903232954 91 0 0.0 0.0 0.00 0.00 0.00 61 1015.5
20260903231953 92 0 0.0 0.0 0.00 0.00 0.00 61 1015.5
20260903231454 92 0 0.0 0.0 0.00 0.00 0.00 60 1015.5
20260903230453 92 0 0.0 0.0 0.00 0.00 0.00 59 1015.5
20260903225454 92 0 0.0 0.0 0.00 0.00 0.00 59 1015.4
20260903224953 92 0 0.0 0.0 0.00 0.00 0.00 58 1015.4
20260903224453 92 0 0.0 0.0 0.00 0.00 0.00 58 1015.4
20260903223953 92 0 0.0 0.0 0.00 0.00 0.00 57 1015.4
20260903223454 92 0 0.0 0.0 0.00 0.00 0.00 57 1015.4
20260903222953 92 0 0.0 0.0 0.00 0.00 0.00 57 1015.3
20260903222453 92 0 0.0 0.0 0.00 0.00 0.00 57 1015.3
20260903221954 91 0 0.0 0.0 0.00 0.00 0.00 57 1015.2
20260903221453 92 0 0.0 0.0 0.00 0.00 0.00 56 1015.2
20260903220953 92 0 0.0 0.0 0.00 0.00 0.00 55 1015.2
20260903220454 93 0 0.0 0.0 0.00 0.00 0.00 55 1015.1
20260903215953 93 0 0.0 0.0 0.00 0.00 0.00 55 1015.1
20260903215453 93 0 0.0 0.0 0.00 0.00 0.00 55 1015.0
20260903214454 92 0 0.0 0.0 0.00 0.00 0.00 55 1014.7
20260903213953 93 0 0.0 0.0 0.00 0.00 0.00 54 1014.6
20260903212954 93 0 0.0 0.0 0.00 0.00 0.00 53 1014.5
20260903212453 93 0 0.0 0.0 0.00 0.00 0.00 55 1014.5
20260903211954 93 0 0.0 0.0 0.00 0.00 0.00 55 1014.4
20260903211454 93 0 0.0 0.0 0.00 0.00 0.00 55 1014.5
20260903210953 93 0 0.0 0.0 0.00 0.00 0.00 54 1014.5
20260903210453 93 0 0.0 0.0 0.00 0.00 0.00 55 1014.4
20260903205954 93 0 0.0 0.0 0.00 0.00 0.00 56 1014.4
20260903205454 93 0 0.0 0.0 0.00 0.00 0.00 56 1014.6
20260903204953 93 0 0.0 0.0 0.00 0.00 0.00 54 1014.6
20260903204453 93 0 0.0 0.0 0.00 0.00 0.00 54 1014.8
20260903203453 94 0 0.0 0.0 0.00 0.00 0.00 53 1014.9
20260903202954 93 0 0.0 0.0 0.00 0.00 0.00 55 1015.0
20260903201953 93 0 0.0 0.0 0.00 0.00 0.00 54 1015.2
20260903201453 94 0 0.0 0.0 0.00 0.00 0.00 55 1015.3
20260903200953 93 0 0.0 0.0 0.00 0.00 0.00 54 1015.3
20260903200453 93 0 0.0 0.0 0.00 0.00 0.00 56 1015.4
20260903195953 92 0 0.0 0.0 0.00 0.00 0.00 56 1015.5
20260903195454 92 0 0.0 0.0 0.00 0.00 0.00 57 1015.7
20260903194953 93 0 0.0 0.0 0.00 0.00 0.00 54 1015.7
20260903194453 94 0 0.0 0.0 0.00 0.00 0.00 54 1015.6
20260903193954 94 0 0.0 0.0 0.00 0.00 0.00 52 1015.7
20260903193454 94 0 0.0 0.0 0.00 0.00 0.00 52 1015.8
20260903192954 94 0 0.0 0.0 0.00 0.00 0.00 54 1015.8
20260903192453 93 0 0.0 0.0 0.00 0.00 0.00 53 1015.9
20260903191953 93 0 0.0 0.0 0.00 0.00 0.00 54 1015.9
20260903191453 93 0 0.0 0.0 0.00 0.00 0.00 53 1016.1
20260903190453 93 0 0.0 0.0 0.00 0.00 0.00 53 1016.2
20260903185953 93 0 0.0 0.0 0.00 0.00 0.00 54 1016.3
20260903185453 93 0 0.0 0.0 0.00 0.00 0.00 53 1016.4
20260903184954 93 0 0.0 0.0 0.00 0.00 0.00 53 1016.4
20260903183953 93 0 0.0 0.0 0.00 0.00 0.00 53 1016.4
20260903183454 93 0 0.0 0.0 0.00 0.00 0.00 54 1016.5
20260903182953 92 0 0.0 0.0 0.00 0.00 0.00 55 1016.5
20260903182454 93 0 0.0 0.0 0.00 0.00 0.00 54 1016.5
20260903181954 93 0 0.0 0.0 0.00 0.00 0.00 54 1016.6
20260903181453 92 0 0.0 0.0 0.00 0.00 0.00 56 1016.6
20260903180953 92 0 0.0 0.0 0.00 0.00 0.00 56 1016.5
20260903180454 92 0 0.0 0.0 0.00 0.00 0.00 55 1016.7
20260903175954 92 0 0.0 0.0 0.00 0.00 0.00 56 1016.7
20260903174454 92 0 0.0 0.0 0.00 0.00 0.00 56 1016.9
20260903173954 91 0 0.0 0.0 0.00 0.00 0.00 56 1016.9
20260903173453 92 0 0.0 0.0 0.00 0.00 0.00 55 1017.1
20260903172953 91 0 0.0 0.0 0.00 0.00 0.00 59 1017.0
20260903172453 91 0 0.0 0.0 0.00 0.00 0.00 58 1017.0
20260903171954 91 0 0.0 0.0 0.00 0.00 0.00 61 1017.0
20260903170954 90 0 0.0 0.0 0.00 0.00 0.00 62 1017.1
20260903170453 90 0 0.0 0.0 0.00 0.00 0.00 60 1017.1
20260903165953 90 0 0.0 0.0 0.00 0.00 0.00 61 1017.1
20260903165454 90 0 0.0 0.0 0.00 0.00 0.00 60 1017.2
20260903164954 90 0 0.0 0.0 0.00 0.00 0.00 62 1017.2
20260903163953 90 0 0.0 0.0 0.00 0.00 0.00 64 1017.4
20260903163454 90 0 0.0 0.0 0.00 0.00 0.00 62 1017.4
20260903161454 89 0 0.0 0.0 0.00 0.00 0.00 63 1017.5
20260903160953 89 0 0.0 0.0 0.00 0.00 0.00 62 1017.5
20260903160453 89 0 0.0 0.0 0.00 0.00 0.00 62 1017.6
20260903155954 89 0 0.0 0.0 0.00 0.00 0.00 64 1017.6
20260903155454 89 0 0.0 0.0 0.00 0.00 0.00 63 1017.6
20260903154954 89 0 0.0 0.0 0.00 0.00 0.00 65 1017.6
20260903154454 89 0 0.0 0.0 0.00 0.00 0.00 65 1017.6
20260903153953 89 0 0.0 0.0 0.00 0.00 0.00 66 1017.6
20260903153453 88 0 0.0 0.0 0.00 0.00 0.00 66 1017.6
20260903152953 88 0 0.0 0.0 0.00 0.00 0.00 65 1017.6
20260903152453 88 0 0.0 0.0 0.00 0.00 0.00 66 1017.6
20260903151453 88 0 0.0 0.0 0.00 0.00 0.00 68 1017.6
20260903150954 87 0 0.0 0.0 0.00 0.00 0.00 67 1017.5
20260903150454 87 0 0.0 0.0 0.00 0.00 0.00 68 1017.5
20260903145953 87 0 0.0 0.0 0.00 0.00 0.00 69 1017.5
20260903145453 87 0 0.0 0.0 0.00 0.00 0.00 70 1017.5
20260903144953 86 0 0.0 0.0 0.00 0.00 0.00 71 1017.6
20260903144454 86 0 0.0 0.0 0.00 0.00 0.00 71 1017.5
20260903143954 86 0 0.0 0.0 0.00 0.00 0.00 75 1017.6
20260903143453 85 0 0.0 0.0 0.00 0.00 0.00 74 1017.5
20260903141454 83 0 0.0 0.0 0.00 0.00 0.00 76 1017.5
20260903140954 83 0 0.0 0.0 0.00 0.00 0.00 75 1017.5
20260903140454 83 0 0.0 0.0 0.00 0.00 0.00 77 1017.5
20260903135454 82 0 0.0 0.0 0.00 0.00 0.00 76 1017.6
20260903134453 82 0 0.0 0.0 0.00 0.00 0.00 77 1017.7
20260903133954 81 0 0.0 0.0 0.00 0.00 0.00 77 1017.7
20260903132953 81 0 0.0 0.0 0.00 0.00 0.00 78 1017.8
20260903132453 81 0 0.0 0.0 0.00 0.00 0.00 79 1017.9
20260903131954 80 0 0.0 0.0 0.00 0.00 0.00 80 1017.9
20260903131454 80 0 0.0 0.0 0.00 0.00 0.00 80 1017.9
20260903130953 80 0 0.0 0.0 0.00 0.00 0.00 81 1017.9
20260903130453 79 0 0.0 0.0 0.00 0.00 0.00 82 1017.9
20260903125454 78 0 0.0 0.0 0.00 0.00 0.00 83 1018.0
20260903124954 78 0 0.0 0.0 0.00 0.00 0.00 83 1018.0
20260903124454 78 0 0.0 0.0 0.00 0.00 0.00 84 1018.0
20260903123954 77 0 0.0 0.0 0.00 0.00 0.00 84 1018.0
20260903122954 77 0 0.0 0.0 0.00 0.00 0.00 85 1018.0
20260903122453 76 0 0.0 0.0 0.00 0.00 0.00 86 1018.0
20260903121954 76 0 0.0 0.0 0.00 0.00 0.00 87 1018.1
20260903120953 75 0 0.0 0.0 0.00 0.00 0.00 88 1018.1
20260903115954 74 0 0.0 0.0 0.00 0.00 0.00 90 1018.0
20260903114953 73 0 0.0 0.0 0.00 0.00 0.00 90 1018.0
20260903114453 73 0 0.0 0.0 0.00 0.00 0.00 90 1017.9
20260903113954 73 0 0.0 0.0 0.00 0.00 0.00 89 1017.9
20260903113454 73 0 0.0 0.0 0.00 0.00 0.00 89 1017.8
20260903112953 73 0 0.0 0.0 0.00 0.00 0.00 89 1017.8
20260903111954 73 0 0.0 0.0 0.00 0.00 0.00 89 1017.7
20260903111454 73 0 0.0 0.0 0.00 0.00 0.00 89 1017.7
20260903110454 73 0 0.0 0.0 0.00 0.00 0.00 89 1017.6
20260903105953 73 0 0.0 0.0 0.00 0.00 0.00 89 1017.5
20260903104954 73 0 0.0 0.0 0.00 0.00 0.00 89 1017.3
20260903102953 73 0 0.0 0.0 0.00 0.00 0.00 88 1017.2
20260903102454 73 0 0.0 0.0 0.00 0.00 0.00 88 1017.1
20260903101954 73 0 0.0 0.0 0.00 0.00 0.00 88 1017.1
20260903101454 73 0 0.0 0.0 0.00 0.00 0.00 88 1017.1
20260903100953 74 0 0.0 0.0 0.00 0.00 0.00 88 1017.1
20260903100453 74 0 0.0 0.0 0.00 0.00 0.00 88 1017.1
20260903095954 74 0 0.0 0.0 0.00 0.00 0.00 88 1017.1
20260903095454 74 0 0.0 0.0 0.00 0.00 0.00 88 1017.0
20260903094954 74 0 0.0 0.0 0.00 0.00 0.00 88 1017.0
20260903094454 74 0 0.0 0.0 0.00 0.00 0.00 88 1017.0
20260903093953 74 0 0.0 0.0 0.00 0.00 0.00 88 1017.0
20260903093454 74 0 0.0 0.0 0.00 0.00 0.00 88 1017.0
20260903092954 74 0 0.0 0.0 0.00 0.00 0.00 87 1016.9
20260903092453 74 0 0.0 0.0 0.00 0.00 0.00 87 1016.9
20260903091953 74 0 0.0 0.0 0.00 0.00 0.00 87 1017.0
20260903091453 74 0 0.0 0.0 0.00 0.00 0.00 87 1017.0
20260903090954 74 0 0.0 0.0 0.00 0.00 0.00 87 1016.9
20260903090454 74 0 0.0 0.0 0.00 0.00 0.00 87 1016.9
20260903085954 74 0 0.0 0.0 0.00 0.00 0.00 87 1016.9
20260903085453 75 0 0.0 0.0 0.00 0.00 0.00 87 1016.9
20260903084954 75 0 0.0 0.0 0.00 0.00 0.00 87 1016.9
20260903084454 75 0 0.0 0.0 0.00 0.00 0.00 87 1016.8
20260903083954 75 0 0.0 0.0 0.00 0.00 0.00 87 1016.9
20260903083453 75 0 0.0 0.0 0.00 0.00 0.00 87 1016.9
20260903082954 75 0 0.0 0.0 0.00 0.00 0.00 87 1016.9
20260903082453 75 0 0.0 0.0 0.00 0.00 0.00 86 1016.9
20260903081954 75 0 0.0 0.0 0.00 0.00 0.00 86 1017.0
20260903081454 75 0 0.0 0.0 0.00 0.00 0.00 86 1017.0
20260903080454 75 0 0.0 0.0 0.00 0.00 0.00 86 1016.9
20260903075954 75 0 0.0 0.0 0.00 0.00 0.00 86 1016.9
20260903074954 75 0 0.0 0.0 0.00 0.00 0.00 86 1016.8
20260903073954 75 0 0.0 0.0 0.00 0.00 0.00 85 1016.9
20260903073454 75 0 0.0 0.0 0.00 0.00 0.00 85 1016.9
20260903072953 76 0 0.0 0.0 0.00 0.00 0.00 85 1016.8
20260903072454 76 0 0.0 0.0 0.00 0.00 0.00 86 1016.8
20260903071953 76 0 0.0 0.0 0.00 0.00 0.00 86 1016.7
20260903071454 76 0 0.0 0.0 0.00 0.00 0.00 86 1016.7
20260903070453 76 0 0.0 0.0 0.00 0.00 0.00 86 1016.7
20260903064454 75 0 0.0 0.0 0.00 0.00 0.00 86 1016.9
20260903063954 75 0 0.0 0.0 0.00 0.00 0.00 86 1016.9
20260903063453 75 0 0.0 0.0 0.00 0.00 0.00 86 1016.9
20260903062954 75 0 0.0 0.0 0.00 0.00 0.00 86 1016.9
20260903062453 75 0 0.0 0.0 0.00 0.00 0.00 86 1016.9
20260903061954 75 0 0.0 0.0 0.00 0.00 0.00 86 1016.9
20260903061454 75 0 0.0 0.0 0.00 0.00 0.00 86 1016.9
20260903060454 75 0 0.0 0.0 0.00 0.00 0.00 86 1016.9
20260903055954 75 0 0.0 0.0 0.00 0.00 0.00 85 1016.9
20260903055453 75 0 0.0 0.0 0.00 0.00 0.00 85 1016.8
20260903054454 75 0 0.0 0.0 0.00 0.00 0.00 85 1016.8
20260903053953 75 0 0.0 0.0 0.00 0.00 0.00 85 1016.8
20260903053454 75 0 0.0 0.0 0.00 0.00 0.00 85 1016.8
20260903052953 75 0 0.0 0.0 0.00 0.00 0.00 85 1016.8
20260903052454 75 0 0.0 0.0 0.00 0.00 0.00 85 1016.9
20260903051954 75 0 0.0 0.0 0.00 0.00 0.00 86 1016.8
20260903051454 75 0 0.0 0.0 0.00 0.00 0.00 86 1016.7
20260903050954 75 0 0.0 0.0 0.00 0.00 0.00 86 1016.7
20260903050454 75 0 0.0 0.0 0.00 0.00 0.00 86 1016.7
20260903045953 75 0 0.0 0.0 0.00 0.00 0.00 86 1016.7
20260903045454 75 0 0.0 0.0 0.00 0.00 0.00 86 1016.6
20260903044954 75 0 0.0 0.0 0.00 0.00 0.00 86 1016.5
20260903044454 75 0 0.0 0.0 0.00 0.00 0.00 86 1016.5
20260903043954 75 0 0.0 0.0 0.00 0.00 0.00 86 1016.5
20260903042953 76 0 0.0 0.0 0.00 0.00 0.00 86 1016.5
20260903042453 76 0 0.0 0.0 0.00 0.00 0.00 86 1016.5
20260903041953 76 0 0.0 0.0 0.00 0.00 0.00 86 1016.4
20260903041454 76 0 0.0 0.0 0.00 0.00 0.00 86 1016.4
20260903040954 76 0 0.0 0.0 0.00 0.00 0.00 86 1016.4
20260903035957 76 0 0.0 0.0 0.00 0.00 0.00 85 1016.4
20260903035454 76 0 0.0 0.0 0.00 0.00 0.00 85 1016.4
20260903034953 76 0 0.0 0.0 0.00 0.00 0.00 85 1016.5